Weather History for Walterboro, SC

Change the Weather History Date:

Thursday, January 24, 2013

  Actual Average Record
Temperature  
Mean Temperature 52 °F -  
Max Temperature 68 °F 61 °F 78 °F (2012)
Min Temperature 35 °F 35 °F 17 °F (2014)
Degree Days  
Heating Degree Days 14    
Growing Degree Days 2 (Base 50)    
Moisture  
Dew Point 31 °F    
Average Humidity 52    
Maximum Humidity 87    
Minimum Humidity 21    
Precipitation  
Precipitation 0.00 in - - ()
Sea Level Pressure  
Sea Level Pressure 30.22 in    
Wind  
Wind Speed 9 mph (WNW)    
Max Wind Speed 20 mph    
Max Gust Speed 26 mph    
Visibility 10 miles    
Events      
Averages and records for this station are not official NWS values.
T = Trace of Precipitation, MM = Missing Value Source: NWS Daily Summary

Daily Weather History Graph

Daily Weather History Graph

Search for Another Location

Airport:

Trip Planner

Search our weather history database for the weather conditions in past years. The results will help you decide how hot, cold, wet, or windy it might be!

Date:

Astronomy

Jan. 24, 2013 Rise Set
Actual Time 7:22 AM EST 5:47 PM EST
Civil Twilight 6:55 AM EST 6:13 PM EST
Nautical Twilight 6:26 AM EST 6:43 PM EST
Astronomical Twilight 5:56 AM EST 7:13 PM EST
Moon 3:50 PM EST (1/24) 5:16 AM EST (1/24)
Length of Visible Light 11h 18m
Length of Day
10h 25m
Waxing Gibbous, 94% of the Moon is Illuminated
Jan 24
Waxing Gibbous
Jan 26
Full
Feb 3
Last Quarter
Feb 10
New
Feb 17
First Quarter

Hourly Weather History & Observations

Time (EST) Temp. Windchill Dew Point Humidity Pressure Visibility Wind Dir Wind Speed Gust Speed Precip Events Conditions
12:15 AM 41.0 °F 38.0 °F 32.0 °F 70% 30.19 in 10.0 mi SW 4.6 mph - N/A   Clear
12:35 AM 41.0 °F 36.4 °F 32.0 °F 70% 30.19 in 10.0 mi SW 6.9 mph - N/A   Clear
12:55 AM 42.8 °F 39.3 °F 32.0 °F 66% 30.19 in 10.0 mi WSW 5.8 mph - N/A   Clear
1:15 AM 42.8 °F 38.0 °F 33.8 °F 70% 30.18 in 10.0 mi SW 8.1 mph - N/A   Clear
1:35 AM 44.6 °F 40.2 °F 33.8 °F 66% 30.18 in 10.0 mi SW 8.1 mph - N/A   Mostly Cloudy
1:55 AM 44.6 °F 39.7 °F 33.8 °F 66% 30.17 in 10.0 mi WSW 9.2 mph - N/A   Mostly Cloudy
2:15 AM 44.6 °F 40.7 °F 33.8 °F 66% 30.16 in 10.0 mi WSW 6.9 mph - N/A   Scattered Clouds
2:35 AM 44.6 °F 40.7 °F 33.8 °F 66% 30.16 in 10.0 mi WSW 6.9 mph - N/A   Scattered Clouds
2:55 AM 46.4 °F 41.9 °F 35.6 °F 66% 30.15 in 10.0 mi WSW 9.2 mph - N/A   Clear
3:15 AM 46.4 °F 41.9 °F 35.6 °F 66% 30.14 in 10.0 mi WSW 9.2 mph - N/A   Clear
3:35 AM 46.4 °F 42.9 °F 35.6 °F 66% 30.14 in 10.0 mi SW 6.9 mph - N/A   Scattered Clouds
3:55 AM 42.8 °F 38.6 °F 35.6 °F 76% 30.13 in 10.0 mi SSW 6.9 mph - N/A   Clear
4:15 AM 42.8 °F 39.3 °F 35.6 °F 76% 30.12 in 10.0 mi SW 5.8 mph - N/A   Clear
4:35 AM 41.0 °F 37.1 °F 35.6 °F 81% 30.12 in 10.0 mi SW 5.8 mph - N/A   Clear
4:55 AM 41.0 °F 38.0 °F 35.6 °F 81% 30.12 in 10.0 mi SW 4.6 mph - N/A   Clear
5:15 AM 41.0 °F 39.0 °F 35.6 °F 81% 30.12 in 10.0 mi WSW 3.5 mph - N/A   Clear
5:35 AM 42.8 °F - 35.6 °F 76% 30.12 in 10.0 mi Calm Calm - N/A   Clear
5:55 AM 42.8 °F 41.1 °F 37.4 °F 81% 30.13 in 10.0 mi WSW 3.5 mph - N/A   Clear
6:15 AM 42.8 °F 40.1 °F 37.4 °F 81% 30.13 in 10.0 mi WSW 4.6 mph - N/A   Clear
6:35 AM 42.8 °F 40.1 °F 37.4 °F 81% 30.13 in 10.0 mi WSW 4.6 mph - N/A   Clear
6:55 AM 44.6 °F 40.7 °F 41.0 °F 87% 30.14 in 10.0 mi WSW 6.9 mph - N/A   Clear
7:15 AM 46.4 °F 42.9 °F 41.0 °F 81% 30.14 in 10.0 mi WSW 6.9 mph - N/A   Clear
7:35 AM 48.2 °F - 42.8 °F 82% 30.14 in 10.0 mi WSW 10.4 mph - N/A   Clear
7:55 AM 50.0 °F - 42.8 °F 76% 30.15 in 10.0 mi West 10.4 mph - N/A   Clear
8:15 AM 51.8 °F - 42.8 °F 71% 30.16 in 10.0 mi West 12.7 mph 16.1 mph N/A   Clear
8:35 AM 53.6 °F - 42.8 °F 67% 30.15 in 10.0 mi WSW 12.7 mph 18.4 mph N/A   Clear
8:55 AM 53.6 °F - 42.8 °F 67% 30.16 in 10.0 mi West 11.5 mph - N/A   Clear
9:15 AM 53.6 °F - 42.8 °F 67% 30.17 in 10.0 mi West 13.8 mph 20.7 mph N/A   Clear
9:35 AM 55.4 °F - 42.8 °F 63% 30.17 in 10.0 mi West 12.7 mph 20.7 mph N/A   Clear
9:55 AM 59.0 °F - 42.8 °F 55% 30.18 in 10.0 mi West 12.7 mph 19.6 mph N/A   Clear
10:15 AM 59.0 °F - 42.8 °F 55% 30.18 in 10.0 mi WNW 16.1 mph 23.0 mph N/A   Clear
10:35 AM 60.8 °F - 41.0 °F 48% 30.19 in 10.0 mi West 19.6 mph 25.3 mph N/A   Clear
10:55 AM 60.8 °F - 37.4 °F 42% 30.18 in 10.0 mi WNW 15.0 mph 25.3 mph N/A   Clear
11:15 AM 62.6 °F - 35.6 °F 37% 30.18 in 10.0 mi WNW 11.5 mph 19.6 mph N/A   Clear
11:35 AM 62.6 °F - 33.8 °F 34% 30.17 in 10.0 mi West 15.0 mph 23.0 mph N/A   Clear
11:55 AM 64.4 °F - 33.8 °F 32% 30.17 in 10.0 mi WNW 17.3 mph 25.3 mph N/A   Clear
12:15 PM 64.4 °F - 32.0 °F 30% 30.15 in 10.0 mi WNW 12.7 mph 25.3 mph N/A   Clear
12:35 PM 64.4 °F - 32.0 °F 30% 30.15 in 10.0 mi NW 18.4 mph 25.3 mph N/A   Clear
12:55 PM 64.4 °F - 32.0 °F 30% 30.15 in 10.0 mi WNW 16.1 mph 25.3 mph N/A   Clear
1:15 PM 66.2 °F - 30.2 °F 26% 30.15 in 10.0 mi NW 13.8 mph 26.5 mph N/A   Clear
1:35 PM 66.2 °F - 30.2 °F 26% 30.14 in 10.0 mi West 16.1 mph 21.9 mph N/A   Clear
1:55 PM 66.2 °F - 30.2 °F 26% 30.14 in 10.0 mi NW 13.8 mph 23.0 mph N/A   Clear
2:15 PM 68.0 °F - 28.4 °F 23% 30.14 in 10.0 mi WNW 13.8 mph 25.3 mph N/A   Clear
2:35 PM 68.0 °F - 28.4 °F 23% 30.15 in 10.0 mi WNW 12.7 mph 20.7 mph N/A   Clear
2:55 PM 68.0 °F - 26.6 °F 21% 30.16 in 10.0 mi WNW 15.0 mph 25.3 mph N/A   Clear
3:15 PM 66.2 °F - 26.6 °F 23% 30.16 in 10.0 mi NW 13.8 mph 23.0 mph N/A   Clear
3:35 PM 66.2 °F - 28.4 °F 24% 30.18 in 10.0 mi WNW 12.7 mph - N/A   Clear
3:55 PM 64.4 °F - 28.4 °F 26% 30.19 in 10.0 mi NNW 10.4 mph - N/A   Clear
4:15 PM 64.4 °F - 28.4 °F 26% 30.19 in 10.0 mi NNW 5.8 mph - N/A   Clear
4:35 PM 59.0 °F - 32.0 °F 36% 30.21 in 10.0 mi NNE 13.8 mph 19.6 mph N/A   Clear
4:55 PM 55.4 °F - 32.0 °F 41% 30.24 in 10.0 mi NNE 12.7 mph 18.4 mph N/A   Clear
5:15 PM 53.6 °F - 32.0 °F 44% 30.26 in 10.0 mi NE 9.2 mph - N/A   Clear
6:15 PM 50.0 °F - 28.4 °F 43% 30.31 in 10.0 mi ENE 12.7 mph 20.7 mph N/A   Clear
6:35 PM 48.2 °F - 26.6 °F 43% 30.33 in 10.0 mi ENE 13.8 mph 21.9 mph N/A   Clear
6:55 PM 46.4 °F 41.1 °F 24.8 °F 43% 30.34 in 10.0 mi ENE 11.5 mph 19.6 mph N/A   Clear
7:15 PM 46.4 °F 39.8 °F 23.0 °F 40% 30.36 in 10.0 mi ENE 16.1 mph - N/A   Clear
7:35 PM 44.6 °F 39.2 °F 21.2 °F 39% 30.37 in 10.0 mi ENE 10.4 mph 17.3 mph N/A   Clear
7:55 PM 42.8 °F 37.5 °F 21.2 °F 42% 30.38 in 10.0 mi ENE 9.2 mph - N/A   Clear
8:35 PM 42.8 °F 36.6 °F 19.4 °F 39% 30.41 in 10.0 mi ENE 11.5 mph 16.1 mph N/A   Clear
8:55 PM 42.8 °F 36.6 °F 19.4 °F 39% 30.41 in 10.0 mi ENE 11.5 mph 21.9 mph N/A   Clear
9:15 PM 41.0 °F 35.8 °F 19.4 °F 42% 30.43 in 10.0 mi NE 8.1 mph - N/A   Clear
9:35 PM 39.2 °F 34.2 °F 17.6 °F 42% 30.44 in 10.0 mi NE 6.9 mph - N/A   Clear
9:55 PM 39.2 °F 30.8 °F 17.6 °F 42% 30.44 in 10.0 mi ENE 15.0 mph 20.7 mph N/A   Clear
10:15 PM 37.4 °F 28.9 °F 14.0 °F 38% 30.46 in 10.0 mi ENE 13.8 mph 18.4 mph N/A   Clear
10:35 PM 37.4 °F 30.3 °F 14.0 °F 38% 30.46 in 10.0 mi ENE 10.4 mph - N/A   Clear
10:55 PM 35.6 °F 27.5 °F 14.0 °F 41% 30.46 in 10.0 mi ENE 11.5 mph - N/A   Clear
11:15 PM 35.6 °F 29.2 °F 14.0 °F 41% 30.47 in 10.0 mi ENE 8.1 mph - N/A   Clear
11:35 PM 35.6 °F 29.2 °F 12.2 °F 38% 30.46 in 10.0 mi ENE 8.1 mph - N/A   Clear
11:55 PM 35.6 °F 28.0 °F 14.0 °F 41% 30.46 in 10.0 mi ENE 10.4 mph 19.6 mph N/A   Clear